Regional Weather Roundup
Issued by NWS

Home | Current Version | Previous Version | Graphics & Text | Print | Product List | Glossary Off
Versions: 1 2 3 4 5 6 7 8 9 10 11 12 13 14 15 16 17 18 19 20 21 22 23 24 25 26 27 28 29 30 31 32 33 34 35 36 37 38 39 40 41 42 43 44 45 46 47 48 49 50

037
ASUS43 KTOP 271759
RWRKS

WEATHER ROUNDUP FOR KANSAS
NATIONAL WEATHER SERVICE GOODLAND KS
1200 PM CST MON FEB 27 2017

NOTE:  "FAIR" INDICATES FEW OR NO CLOUDS BELOW 12,000 FEET WITH NO
SIGNIFICANT WEATHER AND/OR OBSTRUCTIONS TO VISIBILITY.

KSZ001>006-013>018-027>032-041>047-271900-
NORTHWEST KANSAS

CITY           SKY/WX    TMP DP  RH WIND       PRES   REMARKS
GOODLAND       SUNNY     46  20  35 VRB3      29.70F
6HR MIN TEMP:  19; 6HR MAX TEMP:  46;

HAYS           SUNNY     53  34  48 S16G24    29.79F
HILL CITY      CLOUDY    50  30  46 S13G20    29.78F
6HR MIN TEMP:  17; 6HR MAX TEMP:  50;

RUSSELL        MOSUNNY   53  38  56 S21       29.81F
6HR MIN TEMP:  26; 6HR MAX TEMP:  53;

$$

KSZ061>065-074>080-084>089-271900-
SOUTHWEST KANSAS

CITY           SKY/WX    TMP DP  RH WIND       PRES   REMARKS
DODGE CITY     SUNNY     55  28  35 SW17G31   29.80F
6HR MIN TEMP:  23; 6HR MAX TEMP:  55;

ELKHART          N/A     58  21  24 SW15        N/A
GARDEN CITY    SUNNY     53  19  26 SW12      29.77F
6HR MIN TEMP:  20; 6HR MAX TEMP:  54;

GREAT BEND     SUNNY     53  40  61 S17       29.82F
LIBERAL        SUNNY     57  28  33 SW18      29.81F
$$

KSZ066>073-081>083-090>101-271900-
SOUTHEAST KANSAS

CITY           SKY/WX    TMP DP  RH WIND       PRES   REMARKS
CHANUTE        PTSUNNY   62  38  40 SE15G23   29.95F
6HR MIN TEMP:  24; 6HR MAX TEMP:  62;

COFFEYVILLE    CLOUDY    58  41  53 S13       29.96F
6HR MIN TEMP:  28; 6HR MAX TEMP:  59;

HUTCHINSON     CLOUDY    45  43  93 SE10      29.88F FOG
6HR MIN TEMP:  30; 6HR MAX TEMP:  48;

MEDICINE LODGE   N/A     43  41  93 S7        29.87F
NEWTON         CLOUDY    51  43  74 S18       29.89F
PARSONS        CLOUDY    61  40  45 SE14G20   29.96F
6HR MIN TEMP:  32; 6HR MAX TEMP:  61;

WICHITA INTL   CLOUDY    53  43  68 SE18      29.89F
6HR MIN TEMP:  33; 6HR MAX TEMP:  53;

WICHITA JABRA  CLOUDY    52  43  71 SE18      29.89F
6HR MIN TEMP:  28; 6HR MAX TEMP:  52;

WINFIELD       CLOUDY    54  43  66 SE15G24   29.92F
6HR MIN TEMP:  35; 6HR MAX TEMP:  54;

$$

KSZ007>012-019>026-033>040-048>060-102>105-271900-
NORTHEAST KANSAS

CITY           SKY/WX    TMP DP  RH WIND       PRES   REMARKS
CONCORDIA      MOSUNNY   52  34  50 S23G35    29.87F
6HR MIN TEMP:  21; 6HR MAX TEMP:  53;

EMPORIA        CLOUDY    57  38  48 SE20G28   29.92F
6HR MIN TEMP:  23; 6HR MAX TEMP:  57;

LAWRENCE         N/A    N/A N/A N/A MISG      29.98F
6HR MIN TEMP:  24; 6HR MAX TEMP:  56;

MANHATTAN      CLOUDY    55  36  48 S15       29.92F
6HR MIN TEMP:  20; 6HR MAX TEMP:  57;

OLATHE IND     SUNNY     57  35  43 SE17G29   29.99F
6HR MIN TEMP:  27; 6HR MAX TEMP:  57;

OLATHE EXE     SUNNY     54  37  52 SE14      29.98F
6HR MIN TEMP:  25; 6HR MAX TEMP:  54;

SALINA         CLOUDY    55  39  54 SE17      29.87F
6HR MIN TEMP:  23; 6HR MAX TEMP:  56;

TOPEKA BILLARD MOSUNNY   57  36  45 SE17G28   29.96F
6HR MIN TEMP:  24; 6HR MAX TEMP:  57;

TOPEKA FORBES  PTSUNNY   58  36  43 S20G28    29.95F
6HR MIN TEMP:  29; 6HR MAX TEMP:  58;

$$




USA.gov is the U.S. government's official web portal to all federal, state and local government web resources and services.